P/2010 H2 ( Vales )

Japanese version
Home page
Updated on October 3, 2010

---------------------------------------------------------------------

* Profile

Discovery Date April 16, 2010
Magnitude 12.6 mag
Discoverer J. Vales (Crni Vrh, Slovenia)

* Pictures

* Orbital Elements

The following orbital elements are taken from MPC 70362:

Epoch 2010 Mar. 25.0 TT = JDT 2455280.5
T 2010 Mar. 8.1621 TT                                   MPC
q   3.107746             (2000.0)            P               Q
n   0.1304571      Peri.  129.8940      -0.9481638      +0.2274938
a   3.850268       Node    64.3048      -0.3095915      -0.8187784
e   0.192849       Incl.   14.2546      +0.0716837      -0.5271134
P   7.56
From 1315 observations 2010 Apr. 16-May 24.

* Finding Charts

* Magnitudes Graph

        H = 16.0  G = 0.15                        [   , 40]  (             - 2010 Apr. 15)
        m1 = -240 + 5 log d + 400 log r(t + 800)  [ 40,240]  (2010 Apr. 15 - 2010 Nov.  1)
        H = 16.0  G = 0.15                        [240,   ]  (2010 Nov.  1 -             )

---------------------------------------------------------------------

The orbital elements are published at the MPC Ephemerides and Orbital Elements.
The charts are made with StellaNavigator Ver.8 (AstroArts).
The magnitudes graphs are made with Comet for Windows.

---------------------------------------------------------------------

Copyright(C) Seiichi Yoshida (comet@aerith.net). All rights reserved.